LAN064 SCTE-SCEL

Flight info

Callsign LAN064
Flight time 1h 23m
Altitude 36000
Route ANROS6A ANROS UQ802 EROLO EROLO8A
Aircraft A320/M-SDE3FGHIRWY/LB1

Departure

Time 2026-04-23 04:04
Airport El Tepual International Airport (SCTE)

Arrival

Time 2026-04-23 05:27
Airport Comodoro Arturo Merino Benítez International Airport (SCEL)
Time Latitude Longitude Altitude Speed Heading
2026-04-23 03:49 -41.43257 -73.09747 301 ft 0 kts 272°
2026-04-23 03:52 -41.43257 -73.09745 302 ft 2 kts 271°
2026-04-23 03:52 -41.43257 -73.09727 303 ft 2 kts 271°
2026-04-23 03:53 -41.43257 -73.09709 301 ft 2 kts 271°
2026-04-23 03:53 -41.43258 -73.09690 300 ft 2 kts 272°
2026-04-23 03:53 -41.43258 -73.09672 300 ft 2 kts 272°
2026-04-23 03:53 -41.43260 -73.09658 300 ft 1 kts 254°
2026-04-23 03:54 -41.43258 -73.09650 300 ft 1 kts 195°
2026-04-23 03:54 -41.43253 -73.09648 301 ft 1 kts 183°
2026-04-23 03:54 -41.43248 -73.09648 302 ft 1 kts 181°
2026-04-23 03:54 -41.43242 -73.09648 302 ft 1 kts 180°
2026-04-23 03:55 -41.43237 -73.09648 300 ft 1 kts 181°
2026-04-23 03:55 -41.43232 -73.09647 300 ft 1 kts 181°
2026-04-23 03:55 -41.43231 -73.09647 300 ft 0 kts 181°
2026-04-23 03:56 -41.43232 -73.09647 300 ft 1 kts 181°
2026-04-23 03:57 -41.43242 -73.09643 302 ft 2 kts 155°
2026-04-23 03:57 -41.43261 -73.09613 301 ft 8 kts 128°
2026-04-23 03:57 -41.43294 -73.09596 301 ft 6 kts 181°
2026-04-23 03:57 -41.43340 -73.09597 304 ft 8 kts 181°
2026-04-23 03:58 -41.43401 -73.09599 301 ft 10 kts 182°
2026-04-23 03:58 -41.43478 -73.09602 302 ft 12 kts 181°
2026-04-23 03:58 -41.43570 -73.09605 303 ft 14 kts 181°
2026-04-23 03:58 -41.43679 -73.09609 301 ft 17 kts 181°
2026-04-23 03:59 -41.43807 -73.09614 300 ft 20 kts 181°
2026-04-23 03:59 -41.43957 -73.09621 302 ft 23 kts 180°
2026-04-23 03:59 -41.44124 -73.09626 300 ft 25 kts 181°
2026-04-23 03:59 -41.44308 -73.09633 302 ft 28 kts 182°
2026-04-23 04:00 -41.44501 -73.09641 301 ft 27 kts 182°
2026-04-23 04:00 -41.44658 -73.09645 302 ft 23 kts 182°
2026-04-23 04:00 -41.44828 -73.09650 301 ft 25 kts 180°
2026-04-23 04:00 -41.44967 -73.09654 302 ft 10 kts 181°
2026-04-23 04:01 -41.45029 -73.09656 302 ft 5 kts 181°
2026-04-23 04:01 -41.45053 -73.09648 304 ft 6 kts 152°
2026-04-23 04:01 -41.45069 -73.09595 304 ft 7 kts 91°
2026-04-23 04:01 -41.45068 -73.09539 307 ft 4 kts 90°
2026-04-23 04:02 -41.45068 -73.09527 309 ft 0 kts 90°
2026-04-23 04:02 -41.45068 -73.09507 310 ft 4 kts 91°
2026-04-23 04:02 -41.45069 -73.09457 312 ft 8 kts 91°
2026-04-23 04:03 -41.45047 -73.09432 311 ft 0 kts 358°
2026-04-23 04:03 -41.44889 -73.09430 304 ft 61 kts
2026-04-23 04:03 -41.44242 -73.09407 286 ft 122 kts
2026-04-23 04:04 -41.43250 -73.09373 387 ft 156 kts
2026-04-23 04:04 -41.42146 -73.09335 857 ft 161 kts
2026-04-23 04:04 -41.41006 -73.09302 1471 ft 166 kts 359°
2026-04-23 04:04 -41.39833 -73.09274 2051 ft 170 kts 358°
2026-04-23 04:05 -41.38649 -73.09249 2679 ft 170 kts 357°
2026-04-23 04:05 -41.37419 -73.09206 3091 ft 186 kts 357°
2026-04-23 04:05 -41.36049 -73.09156 3348 ft 208 kts 357°
2026-04-23 04:05 -41.34536 -73.09104 3690 ft 229 kts 357°
2026-04-23 04:06 -41.32857 -73.09044 4145 ft 251 kts 358°
2026-04-23 04:06 -41.31083 -73.08974 4962 ft 258 kts 358°
2026-04-23 04:06 -41.29272 -73.08901 5826 ft 263 kts 358°
2026-04-23 04:06 -41.27423 -73.08829 6676 ft 268 kts 357°
2026-04-23 04:07 -41.25540 -73.08686 7468 ft 276 kts
2026-04-23 04:07 -41.23649 -73.08274 8233 ft 282 kts
2026-04-23 04:07 -41.21693 -73.07849 8997 ft 288 kts
2026-04-23 04:07 -41.19693 -73.07418 9744 ft 294 kts
2026-04-23 04:08 -41.17649 -73.06981 10427 ft 302 kts
2026-04-23 04:08 -41.15501 -73.06527 10689 ft 325 kts
2026-04-23 04:08 -41.13218 -73.06042 11111 ft 338 kts
2026-04-23 04:08 -41.10878 -73.05535 11763 ft 343 kts
2026-04-23 04:09 -41.08510 -73.05020 12459 ft 347 kts
2026-04-23 04:09 -41.06115 -73.04501 13129 ft 351 kts
2026-04-23 04:09 -41.03723 -73.03983 13803 ft 355 kts
2026-04-23 04:09 -41.01278 -73.03454 14449 ft 358 kts
2026-04-23 04:10 -40.98807 -73.02923 15072 ft 361 kts
2026-04-23 04:10 -40.96321 -73.02395 15692 ft 363 kts
2026-04-23 04:10 -40.93816 -73.01863 16312 ft 366 kts
2026-04-23 04:10 -40.91292 -73.01323 16929 ft 368 kts
2026-04-23 04:11 -40.88754 -73.00779 17553 ft 371 kts
2026-04-23 04:11 -40.86198 -73.00233 18175 ft 374 kts
2026-04-23 04:11 -40.83621 -72.99682 18771 ft 376 kts
2026-04-23 04:11 -40.81029 -72.99130 19325 ft 378 kts
2026-04-23 04:12 -40.78460 -72.98584 19878 ft 381 kts
2026-04-23 04:12 -40.75832 -72.98024 20427 ft 383 kts
2026-04-23 04:12 -40.73192 -72.97459 20996 ft 386 kts
2026-04-23 04:12 -40.70532 -72.96891 21534 ft 388 kts
2026-04-23 04:13 -40.67856 -72.96321 22056 ft 391 kts
2026-04-23 04:13 -40.65165 -72.95751 22566 ft 394 kts
2026-04-23 04:13 -40.62449 -72.95175 23109 ft 396 kts
2026-04-23 04:13 -40.59718 -72.94598 23653 ft 399 kts
2026-04-23 04:14 -40.57006 -72.94028 24119 ft 401 kts
2026-04-23 04:14 -40.54238 -72.93444 24560 ft 404 kts
2026-04-23 04:14 -40.51461 -72.92856 24997 ft 406 kts
2026-04-23 04:14 -40.48662 -72.92264 25434 ft 408 kts
2026-04-23 04:15 -40.45852 -72.91668 25858 ft 410 kts
2026-04-23 04:15 -40.43028 -72.91070 26267 ft 412 kts
2026-04-23 04:15 -40.37336 -72.89869 27102 ft 416 kts
2026-04-23 04:16 -40.34473 -72.89265 27492 ft 418 kts
2026-04-23 04:16 -40.31630 -72.88700 27871 ft 419 kts
2026-04-23 04:16 -40.28733 -72.88198 28269 ft 421 kts
2026-04-23 04:16 -40.25822 -72.87741 28666 ft 422 kts
2026-04-23 04:17 -40.22898 -72.87297 29047 ft 424 kts
2026-04-23 04:17 -40.19967 -72.86848 29422 ft 426 kts
2026-04-23 04:17 -40.17015 -72.86385 29799 ft 428 kts
2026-04-23 04:17 -40.14059 -72.85909 30187 ft 430 kts
2026-04-23 04:18 -40.11087 -72.85424 30529 ft 431 kts
2026-04-23 04:18 -40.08139 -72.84940 30828 ft 433 kts
2026-04-23 04:18 -40.05143 -72.84450 31135 ft 435 kts
2026-04-23 04:18 -40.02128 -72.83959 31450 ft 437 kts
2026-04-23 04:19 -39.99105 -72.83468 31805 ft 437 kts
2026-04-23 04:19 -39.96094 -72.82975 32224 ft 436 kts
2026-04-23 04:19 -39.93082 -72.82481 32647 ft 436 kts
2026-04-23 04:19 -39.90076 -72.81992 33053 ft 435 kts
2026-04-23 04:20 -39.87075 -72.81509 33447 ft 434 kts
2026-04-23 04:20 -39.84116 -72.81033 33843 ft 434 kts
2026-04-23 04:20 -39.81126 -72.80553 34263 ft 433 kts
2026-04-23 04:20 -39.78131 -72.80072 34610 ft 433 kts
2026-04-23 04:21 -39.75145 -72.79594 34928 ft 432 kts
2026-04-23 04:21 -39.72160 -72.79116 35231 ft 432 kts
2026-04-23 04:21 -39.69175 -72.78624 35535 ft 433 kts
2026-04-23 04:21 -39.66193 -72.78095 35840 ft 433 kts
2026-04-23 04:22 -39.63212 -72.77541 36137 ft 433 kts
2026-04-23 04:22 -39.60234 -72.76978 36425 ft 432 kts
2026-04-23 04:22 -39.57298 -72.76425 36710 ft 432 kts
2026-04-23 04:22 -39.54325 -72.75871 36994 ft 432 kts
2026-04-23 04:23 -39.51354 -72.75327 37262 ft 431 kts
2026-04-23 04:23 -39.48342 -72.74783 37526 ft 431 kts
2026-04-23 04:23 -39.45411 -72.74255 37735 ft 432 kts
2026-04-23 04:23 -39.42432 -72.73718 37966 ft 432 kts
2026-04-23 04:24 -39.39458 -72.73182 38200 ft 432 kts
2026-04-23 04:24 -39.36477 -72.72647 38311 ft 434 kts
2026-04-23 04:24 -39.33473 -72.72108 38335 ft 438 kts
2026-04-23 04:25 -39.27421 -72.71017 38326 ft 440 kts
2026-04-23 04:25 -39.21394 -72.69927 38329 ft 440 kts
2026-04-23 04:26 -39.15336 -72.68827 38325 ft 440 kts
2026-04-23 04:26 -39.09275 -72.67722 38332 ft 440 kts
2026-04-23 04:27 -39.03215 -72.66630 38333 ft 440 kts
2026-04-23 04:27 -38.97187 -72.65552 38338 ft 440 kts
2026-04-23 04:28 -38.88092 -72.63824 38336 ft 443 kts
2026-04-23 04:28 -38.82055 -72.62128 38343 ft 445 kts
2026-04-23 04:29 -38.76027 -72.60246 38349 ft 445 kts
2026-04-23 04:29 -38.70002 -72.58453 38343 ft 444 kts
2026-04-23 04:30 -38.64010 -72.56759 38341 ft 444 kts
2026-04-23 04:30 -38.57978 -72.55073 38341 ft 444 kts
2026-04-23 04:31 -38.51949 -72.53375 38340 ft 444 kts
2026-04-23 04:31 -38.45925 -72.51663 38343 ft 443 kts
2026-04-23 04:32 -38.39904 -72.49960 38340 ft 443 kts
2026-04-23 04:32 -38.33932 -72.48271 38340 ft 443 kts
2026-04-23 04:33 -38.27916 -72.46580 38332 ft 442 kts
2026-04-23 04:33 -38.21908 -72.44899 38333 ft 442 kts
2026-04-23 04:34 -38.15947 -72.43228 38333 ft 441 kts
2026-04-23 04:34 -38.09957 -72.41545 38330 ft 441 kts
2026-04-23 04:35 -38.03964 -72.39875 38322 ft 441 kts
2026-04-23 04:35 -37.97974 -72.38215 38325 ft 440 kts
2026-04-23 04:36 -37.92031 -72.36564 38318 ft 440 kts
2026-04-23 04:36 -37.86057 -72.34898 38319 ft 440 kts
2026-04-23 04:37 -37.80083 -72.33237 38308 ft 439 kts
2026-04-23 04:37 -37.74115 -72.31583 38308 ft 439 kts
2026-04-23 04:38 -37.68194 -72.29945 38299 ft 438 kts
2026-04-23 04:38 -37.62239 -72.28287 38299 ft 439 kts
2026-04-23 04:39 -37.56301 -72.26486 38293 ft 439 kts
2026-04-23 04:39 -37.50372 -72.24620 38292 ft 439 kts
2026-04-23 04:40 -37.44448 -72.22787 38292 ft 438 kts
2026-04-23 04:40 -37.38562 -72.20999 38289 ft 437 kts
2026-04-23 04:41 -37.32646 -72.19213 38281 ft 437 kts
2026-04-23 04:41 -37.26735 -72.17425 38282 ft 437 kts
2026-04-23 04:42 -37.20835 -72.15634 38278 ft 436 kts
2026-04-23 04:42 -37.14932 -72.13849 38271 ft 436 kts
2026-04-23 04:43 -37.09079 -72.12085 38268 ft 435 kts
2026-04-23 04:43 -37.03193 -72.10318 38266 ft 435 kts
2026-04-23 04:44 -36.97305 -72.08551 38262 ft 435 kts
2026-04-23 04:44 -36.91417 -72.06774 38261 ft 435 kts
2026-04-23 04:45 -36.85574 -72.05022 38255 ft 435 kts
2026-04-23 04:45 -36.79690 -72.03262 38248 ft 435 kts
2026-04-23 04:46 -36.73803 -72.01504 38242 ft 435 kts
2026-04-23 04:46 -36.67917 -71.99744 38245 ft 435 kts
2026-04-23 04:47 -36.62069 -71.98001 38239 ft 435 kts
2026-04-23 04:47 -36.56179 -71.96247 38240 ft 435 kts
2026-04-23 04:48 -36.50291 -71.94497 38241 ft 435 kts
2026-04-23 04:48 -36.44403 -71.92749 38235 ft 435 kts
2026-04-23 04:49 -36.38558 -71.91018 38233 ft 435 kts
2026-04-23 04:49 -36.32669 -71.89275 38227 ft 435 kts
2026-04-23 04:50 -36.26787 -71.87535 38226 ft 435 kts
2026-04-23 04:50 -36.20904 -71.85802 38228 ft 434 kts
2026-04-23 04:51 -36.15025 -71.84075 38226 ft 434 kts
2026-04-23 04:51 -36.09183 -71.82351 38234 ft 434 kts
2026-04-23 04:52 -36.03307 -71.80625 38239 ft 434 kts
2026-04-23 04:52 -35.97427 -71.78909 38238 ft 434 kts
2026-04-23 04:53 -35.91555 -71.77192 38229 ft 434 kts
2026-04-23 04:53 -35.85718 -71.75487 38228 ft 434 kts
2026-04-23 04:54 -35.79845 -71.73770 38230 ft 434 kts
2026-04-23 04:54 -35.73972 -71.72060 38225 ft 434 kts
2026-04-23 04:55 -35.68152 -71.70370 38226 ft 434 kts
2026-04-23 04:55 -35.62318 -71.68681 38228 ft 434 kts
2026-04-23 04:56 -35.56446 -71.66975 38226 ft 434 kts
2026-04-23 04:56 -35.50578 -71.65271 38228 ft 433 kts
2026-04-23 04:57 -35.44710 -71.63569 38222 ft 433 kts
2026-04-23 04:57 -35.38878 -71.61881 38219 ft 433 kts
2026-04-23 04:58 -35.33015 -71.60195 38221 ft 433 kts
2026-04-23 04:58 -35.27151 -71.58512 38226 ft 433 kts
2026-04-23 04:59 -35.21289 -71.56824 38231 ft 433 kts
2026-04-23 04:59 -35.15439 -71.55134 38232 ft 432 kts
2026-04-23 05:00 -35.09622 -71.53464 38230 ft 432 kts
2026-04-23 05:00 -35.03769 -71.51789 38217 ft 431 kts
2026-04-23 05:01 -34.97923 -71.50129 38217 ft 431 kts
2026-04-23 05:01 -34.92081 -71.48463 38223 ft 431 kts
2026-04-23 05:02 -34.86279 -71.46811 38220 ft 431 kts
2026-04-23 05:02 -34.80439 -71.45144 38213 ft 431 kts
2026-04-23 05:03 -34.74606 -71.43484 38203 ft 430 kts
2026-04-23 05:03 -34.68775 -71.41830 38213 ft 429 kts
2026-04-23 05:04 -34.63053 -71.39801 38221 ft 439 kts 12°
2026-04-23 05:04 -34.57406 -71.37007 38215 ft 438 kts 12°
2026-04-23 05:05 -34.51765 -71.34226 37735 ft 439 kts 12°
2026-04-23 05:05 -34.48936 -71.32832 37065 ft 440 kts 12°
2026-04-23 05:05 -34.46094 -71.31436 36408 ft 441 kts 12°
2026-04-23 05:06 -34.43283 -71.30058 35766 ft 443 kts 13°
2026-04-23 05:06 -34.40423 -71.28656 35121 ft 444 kts 13°
2026-04-23 05:06 -34.37556 -71.27249 34477 ft 445 kts 13°
2026-04-23 05:06 -34.34682 -71.25841 33761 ft 447 kts 13°
2026-04-23 05:07 -34.31811 -71.24432 33179 ft 444 kts 13°
2026-04-23 05:07 -34.28957 -71.23033 32649 ft 441 kts 14°
2026-04-23 05:07 -34.26116 -71.21642 32121 ft 439 kts 14°
2026-04-23 05:07 -34.23297 -71.20262 31593 ft 436 kts 14°
2026-04-23 05:08 -34.20489 -71.18887 31071 ft 434 kts 14°
2026-04-23 05:08 -34.17739 -71.17544 30560 ft 432 kts 14°
2026-04-23 05:08 -34.14952 -71.16186 30028 ft 430 kts 14°
2026-04-23 05:08 -34.12189 -71.14840 29489 ft 427 kts 14°
2026-04-23 05:09 -34.09450 -71.13507 28982 ft 423 kts 14°
2026-04-23 05:09 -34.06732 -71.12183 28474 ft 419 kts 14°
2026-04-23 05:09 -34.04038 -71.10875 28008 ft 416 kts 14°
2026-04-23 05:09 -34.01368 -71.09581 27551 ft 412 kts 14°
2026-04-23 05:10 -33.98751 -71.08313 27089 ft 409 kts 14°
2026-04-23 05:10 -33.96123 -71.07036 26658 ft 406 kts 14°
2026-04-23 05:10 -33.93513 -71.05769 26239 ft 402 kts 15°
2026-04-23 05:10 -33.90928 -71.04515 25837 ft 400 kts 15°
2026-04-23 05:11 -33.88357 -71.03271 25409 ft 399 kts 14°
2026-04-23 05:11 -33.85761 -71.02021 24708 ft 404 kts 15°
2026-04-23 05:11 -33.83134 -71.00758 24039 ft 408 kts 15°
2026-04-23 05:11 -33.80490 -70.99488 23305 ft 411 kts 15°
2026-04-23 05:12 -33.77827 -70.98207 22523 ft 413 kts 15°
2026-04-23 05:12 -33.75202 -70.96937 21772 ft 413 kts 16°
2026-04-23 05:12 -33.72531 -70.95644 21021 ft 414 kts 16°
2026-04-23 05:12 -33.69863 -70.94352 20309 ft 414 kts 17°
2026-04-23 05:13 -33.67196 -70.93061 19611 ft 413 kts 17°
2026-04-23 05:13 -33.64529 -70.91774 18930 ft 412 kts 17°
2026-04-23 05:13 -33.61883 -70.90503 18188 ft 404 kts 17°
2026-04-23 05:14 -33.56850 -70.88040 16435 ft 384 kts 22°
2026-04-23 05:14 -33.54565 -70.86449 15599 ft 376 kts 27°
2026-04-23 05:14 -33.52370 -70.84832 14771 ft 366 kts 28°
2026-04-23 05:14 -33.50231 -70.83252 13968 ft 356 kts 28°
2026-04-23 05:15 -33.48144 -70.81715 13083 ft 348 kts 28°
2026-04-23 05:15 -33.46102 -70.80215 12219 ft 341 kts 28°
2026-04-23 05:15 -33.44107 -70.78753 11630 ft 327 kts 28°
2026-04-23 05:15 -33.42198 -70.77354 11230 ft 320 kts 28°
2026-04-23 05:16 -33.40303 -70.75966 10800 ft 318 kts 28°
2026-04-23 05:16 -33.38451 -70.74610 10441 ft 315 kts 28°
2026-04-23 05:16 -33.36618 -70.73269 10318 ft 303 kts 28°
2026-04-23 05:16 -33.34853 -70.71976 10197 ft 292 kts 28°
2026-04-23 05:17 -33.33163 -70.70737 10040 ft 277 kts 28°
2026-04-23 05:17 -33.31495 -70.69746 9720 ft 261 kts 16°
2026-04-23 05:17 -33.29743 -70.69319 9224 ft 255 kts
2026-04-23 05:17 -33.27985 -70.69421 8714 ft 251 kts 353°
2026-04-23 05:18 -33.26275 -70.69644 8347 ft 243 kts 353°
2026-04-23 05:18 -33.24618 -70.69847 8015 ft 235 kts 354°
2026-04-23 05:18 -33.23038 -70.70036 7705 ft 228 kts 354°
2026-04-23 05:18 -33.21489 -70.70222 7395 ft 220 kts 354°
2026-04-23 05:19 -33.19996 -70.70386 7104 ft 211 kts 355°
2026-04-23 05:19 -33.18555 -70.70529 6746 ft 205 kts 355°
2026-04-23 05:19 -33.17161 -70.70729 6371 ft 200 kts 343°
2026-04-23 05:19 -33.16018 -70.71602 5993 ft 196 kts 314°
2026-04-23 05:20 -33.15273 -70.72945 5617 ft 194 kts 294°
2026-04-23 05:20 -33.14839 -70.74460 5250 ft 192 kts 289°
2026-04-23 05:20 -33.14415 -70.75928 5004 ft 183 kts 289°
2026-04-23 05:20 -33.14032 -70.77315 4989 ft 170 kts 281°
2026-04-23 05:21 -33.14021 -70.78669 4986 ft 161 kts 258°
2026-04-23 05:21 -33.14428 -70.79888 4988 ft 158 kts 236°
2026-04-23 05:21 -33.15179 -70.80831 4994 ft 157 kts 214°
2026-04-23 05:21 -33.16165 -70.81368 4994 ft 157 kts 192°
2026-04-23 05:22 -33.17247 -70.81438 4996 ft 156 kts 177°
2026-04-23 05:22 -33.18320 -70.81381 4999 ft 156 kts 177°
2026-04-23 05:22 -33.19409 -70.81323 4966 ft 157 kts 177°
2026-04-23 05:22 -33.20495 -70.81265 4824 ft 156 kts 177°
2026-04-23 05:23 -33.21573 -70.81208 4642 ft 154 kts 177°
2026-04-23 05:23 -33.22644 -70.81150 4443 ft 153 kts 177°
2026-04-23 05:23 -33.23706 -70.81094 4245 ft 153 kts 177°
2026-04-23 05:23 -33.24764 -70.81037 4048 ft 153 kts 177°
2026-04-23 05:24 -33.25878 -70.80977 3852 ft 167 kts 177°
2026-04-23 05:24 -33.27044 -70.80915 3623 ft 168 kts 177°
2026-04-23 05:24 -33.28192 -70.80854 3408 ft 167 kts 177°
2026-04-23 05:24 -33.29332 -70.80793 3165 ft 159 kts 177°
2026-04-23 05:25 -33.30408 -70.80735 2955 ft 152 kts 177°
2026-04-23 05:25 -33.31461 -70.80679 2760 ft 150 kts 177°
2026-04-23 05:25 -33.32505 -70.80623 2536 ft 150 kts 177°
2026-04-23 05:25 -33.33546 -70.80567 2337 ft 150 kts 177°
2026-04-23 05:26 -33.34591 -70.80508 2157 ft 150 kts 177°
2026-04-23 05:26 -33.35634 -70.80460 1935 ft 150 kts 177°
2026-04-23 05:26 -33.36653 -70.80403 1725 ft 148 kts 176°
2026-04-23 05:26 -33.37676 -70.80349 1575 ft 142 kts 177°
2026-04-23 05:27 -33.38509 -70.80302 1573 ft 95 kts 178°
2026-04-23 05:27 -33.39041 -70.80274 1574 ft 50 kts 177°
2026-04-23 05:27 -33.39207 -70.80260 1573 ft 23 kts 169°
2026-04-23 05:27 -33.39369 -70.80170 1570 ft 17 kts 148°
2026-04-23 05:28 -33.39427 -70.80127 1568 ft 9 kts 148°
2026-04-23 05:28 -33.39499 -70.80067 1566 ft 16 kts 141°
2026-04-23 05:28 -33.39531 -70.79988 1565 ft 10 kts 87°
2026-04-23 05:28 -33.39528 -70.79895 1565 ft 12 kts 88°
2026-04-23 05:29 -33.39525 -70.79791 1565 ft 13 kts 88°
2026-04-23 05:29 -33.39521 -70.79674 1564 ft 15 kts 87°
2026-04-23 05:29 -33.39516 -70.79548 1564 ft 16 kts 87°
2026-04-23 05:29 -33.39510 -70.79413 1564 ft 17 kts 85°
2026-04-23 05:30 -33.39503 -70.79268 1564 ft 18 kts 88°
2026-04-23 05:30 -33.39498 -70.79114 1564 ft 19 kts 87°
2026-04-23 05:30 -33.39493 -70.78957 1564 ft 15 kts 89°
2026-04-23 05:30 -33.39527 -70.78891 1564 ft 9 kts 169°
2026-04-23 05:31 -33.39593 -70.78886 1564 ft 10 kts 176°
2026-04-23 05:31 -33.39670 -70.78882 1564 ft 11 kts 179°
2026-04-23 05:31 -33.39746 -70.78880 1564 ft 9 kts 179°
2026-04-23 05:31 -33.39784 -70.78897 1564 ft 5 kts 234°
2026-04-23 05:32 -33.39792 -70.78939 1564 ft 6 kts 261°
2026-04-23 05:32 -33.39793 -70.78990 1564 ft 7 kts 269°
2026-04-23 05:32 -33.39793 -70.79049 1564 ft 7 kts 274°
2026-04-23 05:32 -33.39778 -70.79070 1564 ft 0 kts 344°
2026-04-23 05:33 -33.39771 -70.79070 1564 ft 2 kts 354°
2026-04-23 05:33 -33.39746 -70.79068 1564 ft 4 kts
2026-04-23 05:33 -33.39729 -70.79069 1564 ft 2 kts 356°
2026-04-23 05:33 -33.39720 -70.79069 1564 ft 0 kts 358°
2026-04-23 05:34 -33.39719 -70.79069 1564 ft 0 kts 358°